CW1675 Weather Reports


Display with metric or nautical units.
time (UTC)temp
F
wind
direction
speed
MPH
gust
MPH
rain 1hr
in
rain 24hr
in
rain mn
in
humidity
%
barometer
mb
20260508005812 47 42 1.0 0.0 0.00 0.00 0.00 96 1017.3
20260508004812 47 42 0.0 2.0 0.00 0.00 0.00 96 1017.4
20260508003814 47 42 0.0 0.0 0.00 0.00 0.00 96 1017.5
20260508002313 47 42 1.0 3.0 0.00 0.00 0.00 95 1017.5
20260508001313 47 42 1.0 3.0 0.00 0.00 0.00 95 1017.5
20260507235812 47 42 0.0 2.0 0.00 0.00 0.00 95 1017.4
20260507233822 47 42 0.0 2.0 0.00 0.00 0.00 95 1017.7
20260507232813 48 42 0.0 0.0 0.00 0.00 0.00 95 1017.7
20260507222814 49 42 0.0 2.0 0.00 0.00 0.00 94 1017.8
20260507220814 49 42 0.0 0.0 0.00 0.00 0.00 94 1017.8
20260507220314 49 42 0.0 2.0 0.00 0.00 0.00 94 1017.8
20260507215813 49 42 0.0 2.0 0.00 0.00 0.00 94 1017.8
20260507215313 49 42 0.0 0.0 0.00 0.00 0.00 93 1017.8
20260507213314 50 42 0.0 1.0 0.00 0.00 0.00 93 1017.7
20260507212813 50 42 0.0 1.0 0.00 0.00 0.00 93 1017.7
20260507211813 50 42 0.0 0.0 0.00 0.00 0.00 92 1017.7
20260507205813 50 42 0.0 0.0 0.00 0.00 0.00 91 1017.6
20260507204313 51 42 0.0 0.0 0.00 0.00 0.00 91 1017.5
20260507203313 51 42 0.0 0.0 0.00 0.00 0.00 90 1017.4
20260507202814 51 42 0.0 0.0 0.00 0.00 0.00 90 1017.4
20260507201813 51 42 0.0 0.0 0.00 0.00 0.00 90 1017.3
20260507201312 51 42 0.0 0.0 0.00 0.00 0.00 90 1017.3
20260507200813 51 42 0.0 0.0 0.00 0.00 0.00 90 1017.2
20260507195312 52 42 1.0 0.0 0.00 0.00 0.00 89 1017.1
20260507194315 52 42 0.0 2.0 0.00 0.00 0.00 88 1017.1
20260507193817 52 42 0.0 0.0 0.00 0.00 0.00 88 1016.9
20260507193318 52 42 0.0 0.0 0.00 0.00 0.00 87 1016.9
20260507192813 52 42 0.0 2.0 0.00 0.00 0.00 86 1016.9
20260507192312 52 42 0.0 0.0 0.00 0.00 0.00 86 1016.9
20260507191312 53 42 0.0 0.0 0.00 0.00 0.00 85 1016.9
20260507190313 53 42 0.0 0.0 0.00 0.00 0.00 85 1017.0
20260507185813 53 42 0.0 0.0 0.00 0.00 0.00 85 1017.0
20260507185313 54 42 0.0 0.0 0.00 0.00 0.00 85 1016.8
20260507182813 55 42 0.0 0.0 0.00 0.00 0.00 81 1016.8
20260507181813 55 42 0.0 0.0 0.00 0.00 0.00 80 1016.8
20260507181312 55 42 0.0 0.0 0.00 0.00 0.00 81 1016.8
20260507180813 56 42 0.0 0.0 0.00 0.00 0.00 81 1016.7
20260507180313 56 42 0.0 0.0 0.00 0.00 0.00 79 1016.7
20260507175812 56 42 0.0 0.0 0.00 0.00 0.00 78 1016.7
20260507173813 56 42 0.0 2.0 0.00 0.00 0.00 77 1016.6
20260507173313 56 92 0.0 0.0 0.00 0.00 0.00 76 1016.6
20260507172813 57 92 0.0 0.0 0.00 0.00 0.00 75 1016.6
20260507172313 57 92 0.0 2.0 0.00 0.00 0.00 76 1016.5
20260507170814 57 92 0.0 0.0 0.00 0.00 0.00 76 1016.6
20260507170313 57 92 0.0 2.0 0.00 0.00 0.00 73 1016.6
20260507165813 57 92 0.0 2.0 0.00 0.00 0.00 71 1016.6
20260507165313 57 91 0.0 2.0 0.00 0.00 0.00 64 1016.5
20260507164813 57 92 0.0 2.0 0.00 0.00 0.00 67 1016.5
20260507163813 57 13 0.0 0.0 0.00 0.00 0.00 67 1016.5
20260507163313 58 13 0.0 0.0 0.00 0.00 0.00 67 1016.5
20260507162814 58 13 0.0 1.0 0.00 0.00 0.00 68 1016.5
20260507162314 58 13 0.0 0.0 0.00 0.00 0.00 61 1016.5
20260507161813 58 13 1.0 2.0 0.00 0.00 0.00 59 1016.5
20260507160813 58 24 0.0 5.0 0.00 0.00 0.00 58 1016.5
20260507155318 58 11 0.0 3.0 0.00 0.00 0.00 60 1016.5
20260507150339 58 305 2.0 6.0 0.00 0.00 0.00 61 1016.4
20260507145339 58 12 2.0 5.0 0.00 0.00 0.00 60 1016.4
20260507144838 58 83 2.0 6.0 0.00 0.00 0.00 60 1016.4
20260507144339 58 74 2.0 6.0 0.00 0.00 0.00 58 1016.4
20260507143339 58 140 2.0 3.0 0.00 0.00 0.00 59 1016.3
20260507142338 58 35 2.0 3.0 0.00 0.00 0.00 58 1016.5
20260507141339 58 38 2.0 3.0 0.00 0.00 0.00 59 1016.5
20260507140839 58 359 2.0 5.0 0.00 0.02 0.00 60 1016.5
20260507135841 58 25 2.0 5.0 0.00 0.02 0.00 62 1016.5
20260507135339 58 344 2.0 5.0 0.00 0.02 0.00 62 1016.6
20260507134840 58 287 2.0 5.0 0.00 0.02 0.00 60 1016.6
20260507133345 58 37 2.0 6.0 0.00 0.02 0.00 60 1016.6
20260507132840 58 9 2.0 5.0 0.00 0.02 0.00 61 1016.6
20260507131339 58 348 2.0 7.0 0.00 0.02 0.00 62 1016.6
20260507130838 58 310 2.0 5.0 0.00 0.02 0.00 60 1016.6
20260507130338 58 322 2.0 3.0 0.00 0.02 0.00 60 1016.6
20260507125339 57 326 2.0 6.0 0.00 0.03 0.00 61 1016.5
20260507124838 57 295 2.0 5.0 0.00 0.03 0.00 60 1016.5
20260507121838 57 309 3.0 5.0 0.00 0.04 0.00 64 1016.4
20260507121337 57 269 3.0 7.0 0.00 0.04 0.00 68 1016.4
20260507120838 56 176 3.0 7.0 0.00 0.04 0.00 65 1016.6
20260507120338 56 281 3.0 6.0 0.00 0.04 0.00 65 1016.6
20260507115840 56 305 2.0 6.0 0.00 0.04 0.00 66 1016.6
20260507112843 55 30 2.0 5.0 0.00 0.04 0.00 71 1016.6
20260507110839 55 33 2.0 6.0 0.00 0.04 0.00 71 1016.5
20260507110339 55 20 2.0 5.0 0.00 0.04 0.00 72 1016.5
20260507105840 55 25 3.0 6.0 0.00 0.04 0.00 72 1016.5
20260507104839 55 338 2.0 6.0 0.00 0.04 0.00 71 1016.5
20260507104338 55 340 2.0 8.0 0.00 0.04 0.00 72 1016.5
20260507103338 54 213 3.0 5.0 0.00 0.04 0.00 72 1016.7
20260507102840 55 304 3.0 6.0 0.00 0.04 0.00 73 1016.7
20260507101838 54 305 2.0 7.0 0.00 0.04 0.00 76 1016.6
20260507100338 54 297 2.0 7.0 0.00 0.05 0.00 75 1016.4
20260507094339 53 40 2.0 7.0 0.00 0.05 0.00 78 1016.4
20260507093838 53 357 2.0 5.0 0.00 0.05 0.00 79 1016.2
20260507092840 53 320 2.0 5.0 0.00 0.06 0.00 80 1016.2
20260507092339 53 57 2.0 6.0 0.00 0.06 0.00 80 1016.2
20260507091838 53 291 2.0 7.0 0.00 0.07 0.00 81 1016.2
20260507091338 53 299 2.0 5.0 0.00 0.07 0.00 82 1016.2
20260507085842 52 264 3.0 8.0 0.00 0.08 0.00 84 1016.1
20260507083338 51 337 2.0 6.0 0.00 0.12 0.00 86 1016.0
20260507082841 51 309 2.0 6.0 0.00 0.12 0.00 88 1016.0
20260507082338 51 245 2.0 5.0 0.00 0.13 0.00 90 1015.9
20260507081838 50 300 2.0 2.0 0.00 0.13 0.00 89 1015.9
20260507080838 50 308 2.0 6.0 0.00 0.15 0.00 90 1015.8
20260507075338 50 312 1.0 6.0 0.00 0.16 0.00 93 1015.8
20260507074338 49 20 2.0 5.0 0.00 0.18 0.00 94 1015.8
20260507073843 49 222 1.0 6.0 0.00 0.18 0.00 94 1015.6
20260507073338 49 293 1.0 5.0 0.00 0.18 0.00 94 1015.6
20260507072841 49 306 2.0 5.0 0.00 0.19 0.00 95 1015.6
20260507070839 49 290 1.0 7.0 0.00 0.20 0.00 97 1015.5
20260507065338 48 309 1.0 5.0 0.00 0.21 0.00 98 1015.4
20260507064338 48 211 1.0 5.0 0.00 0.21 0.00 98 1015.4
20260507063838 47 203 1.0 5.0 0.00 0.21 0.00 98 1015.3
20260507062842 47 200 1.0 3.0 0.00 0.21 0.00 98 1015.3
20260507061338 47 219 1.0 3.0 0.00 0.21 0.00 99 1015.2
20260507060338 47 217 0.0 3.0 0.00 0.21 0.00 99 1015.1
20260507055358 47 150 0.0 1.0 0.00 0.21 0.00 99 1015.0
20260507054838 47 150 0.0 0.0 0.00 0.21 0.00 99 1015.0
20260507053838 47 150 0.0 0.0 0.00 0.21 0.00 99 1014.9
20260507053338 47 150 0.0 1.0 0.00 0.21 0.00 99 1014.9
20260507052839 47 150 0.0 1.0 0.00 0.21 0.00 99 1014.9
20260507052338 46 150 0.0 2.0 0.00 0.21 0.00 99 1014.8
20260507050338 46 143 0.0 1.0 0.00 0.22 0.00 99 1014.5
20260507045338 46 131 0.0 0.0 0.00 0.22 0.00 99 1014.4
20260507044338 46 131 0.0 0.0 0.00 0.22 0.00 99 1014.4
20260507043337 46 153 0.0 0.0 0.00 0.23 0.00 99 1014.3
20260507042841 46 153 0.0 3.0 0.00 0.23 0.00 99 1014.3
20260507042338 46 111 0.0 0.0 0.00 0.23 0.00 98 1014.2
20260507041338 45 326 0.0 0.0 0.00 0.23 0.00 98 1014.2
20260507035841 45 326 0.0 2.0 0.00 0.25 0.00 98 1014.0
20260507033837 45 326 0.0 0.0 0.00 0.26 0.00 98 1013.9
20260507032337 45 326 0.0 0.0 0.00 0.26 0.00 98 1013.8
20260507031838 45 326 0.0 0.0 0.00 0.26 0.00 98 1013.8
20260507031338 45 326 0.0 0.0 0.00 0.27 0.00 98 1013.8
20260507030838 45 326 0.0 0.0 0.00 0.27 0.00 98 1013.8
20260507025840 45 326 0.0 0.0 0.00 0.27 0.00 98 1013.8
20260507024838 45 326 0.0 0.0 0.00 0.27 0.00 97 1013.7
20260507023838 45 326 0.0 0.0 0.00 0.28 0.00 97 1013.6
20260507023337 45 326 0.0 0.0 0.00 0.28 0.00 97 1013.6
20260507022838 46 326 0.0 0.0 0.00 0.29 0.00 97 1013.6
20260507021838 46 326 0.0 0.0 0.00 0.29 0.00 97 1013.6
20260507021338 46 326 0.0 0.0 0.00 0.29 0.00 97 1013.6
20260507015840 46 326 0.0 0.0 0.00 0.29 0.00 97 1013.5
20260507014838 46 326 0.0 0.0 0.00 0.31 0.00 97 1013.4
20260507014337 46 326 0.0 0.0 0.00 0.31 0.00 97 1013.4
20260507012842 46 326 0.0 0.0 0.00 0.32 0.00 97 1013.4
20260507012338 46 326 0.0 0.0 0.00 0.32 0.00 97 1013.3